Location: Little Cypress
(30.1590°N, 93.7750°W)
Time: 08:49:41
(UTC-05:00)

Daily predictions for brighter satellites

Satellite Brightness Start Highest point End
(mag) Time Altitude Azimuth Time Altitude Azimuth Time Altitude Azimuth
Cosmos 2233 Rocket 4.3 19:17:03 10° S 19:23:20 80° W 19:29:41 10° N
BREEZE-M DEB (TANK) 4.3 19:21:00 10° NNW 19:24:42 51° NE 19:36:53 10° ESE
SL-16 R/B 2.3 19:20:52 10° SSW 19:26:33 88° WNW 19:32:16 10° NNE
SEDSat Delta rocket 4.1 19:20:06 10° W 19:26:39 85° N 19:33:31 10° E
NOSS 3-2 (A) 3.6 19:20:43 10° SSW 19:26:40 80° WNW 19:33:04 10° NNE
Abrixas rocket 4.2 19:25:03 10° WNW 19:27:59 29° SW 19:30:55 10° SSE
FREGAT/IRIS 4.2 19:26:35 10° ESE 19:28:49 19° ENE 19:31:04 10° NNE
ATLAS CENTAUR R/B 1.3 19:30:59 10° NNW 19:34:59 56° ENE 19:38:42 10° SE
SKYMED 2 4.4 19:31:45 10° N 19:36:00 55° WNW 19:40:13 10° SSW
Blok-ML 4.2 19:30:01 10° NNW 19:36:02 69° ENE 19:41:39 10° SE
SL-8 R/B 3.8 19:31:24 10° SW 19:36:06 62° SE 19:40:48 10° NE
Cosmos 1408 Rocket 4.5 19:36:54 10° NNE 19:40:33 26° E 19:44:11 10° SE
Gbstr 26 Del rocket 4.1 19:38:23 10° S 19:41:48 25° ESE 19:45:45 10° ENE
Cosmos 1437 2.7 19:39:30 10° N 19:42:46 85° E 19:46:01 10° S
Cosmos 1953 2.9 19:40:21 10° SSE 19:43:57 33° E 19:47:34 10° NNE
Cosmos 1378 3.2 19:44:23 10° N 19:48:03 55° E 19:51:42 10° SSE
Cosmos 1805 3.7 19:45:05 10° SSE 19:48:43 38° E 19:52:22 10° NNE
SAR-Lupe-4 3.4 19:47:53 10° SSE 19:51:26 80° ENE 19:55:00 10° N
Resurs 01 Rocket 2.3 19:49:35 10° SE 19:53:36 34° ENE 19:57:38 10° N
Meteor 1-28 Rocket 3.4 19:51:12 10° N 19:54:54 74° WNW 19:58:35 10° SSW
Okean 3 Rocket 3.9 19:51:23 10° N 19:55:55 76° W 20:00:26 10° S
Cosmos 2278 Rocket 3.2 19:51:38 10° NNW 19:57:03 49° WSW 20:02:27 10° S
Abrixas 2.8 19:54:23 10° SW 19:57:21 65° NW 20:00:02 12° NE
CENTAUR R/B 3.0 19:56:02 10° S 20:01:08 32° ESE 20:06:40 10° NE
ASTEX 1 4.3 19:57:23 10° NE 20:01:25 25° E 20:05:26 10° SE
Cosmos 1269 Rocket 4.3 19:57:10 10° S 20:02:10 45° ESE 20:07:11 10° NNE
Spot 2 Rocket 3.7 19:57:24 10° SE 20:02:13 47° ENE 20:07:01 10° N
Cosmos 2297 3.6 19:57:37 10° NNW 20:03:18 83° ENE 20:08:55 10° SSE
Delta 168 4.0 19:59:35 10° WSW 20:04:00 49° S 20:08:13 20° ESE
Cosmos 1048 Rocket 4.4 19:59:10 10° SSE 20:04:04 39° E 20:08:58 10° NNE
Helios 1A 3.4 20:00:35 10° SE 20:04:29 39° ENE 20:08:22 10° N
NOSS 3-2 (C) 4.3 19:59:17 10° SW 20:05:05 51° WNW 20:11:19 10° NNE
Cosmos 1943 3.9 20:05:11 10° SSE 20:09:57 29° ESE 20:14:42 10° NE
Centaur D-1A AC-32 3.7 20:07:19 10° WSW 20:10:06 21° SSW 20:12:24 12° SSE
Meteor 1-24 Rocket 4.3 20:07:18 10° NNW 20:12:46 60° W 20:18:02 10° S
Cosmos 1603 3.7 20:08:10 10° SSW 20:13:53 85° ESE 20:19:39 10° NNE
Cosmos 2056 Rocket 4.1 20:08:55 10° NNW 20:14:16 61° WSW 20:19:34 10° S
SJ-6B 3.4 20:10:53 10° S 20:14:45 59° W 20:18:43 10° NNW
Cosmos 2369 Rocket 4.1 20:12:42 10° NE 20:14:17 12° NE 20:14:17 12° NE
GPS 2-04 Rocket1 2.5 20:14:51 10° WSW 20:18:19 72° NNW 20:19:40 35° ENE
Nadezhda 4 Rocket 4.1 20:17:55 10° N 20:23:57 48° E 20:29:51 10° SSE
HJ-1C 3.3 20:21:33 11° S 20:24:46 83° WSW 20:28:08 10° NNW
Cosmos 1758 3.9 20:22:13 10° SSW 20:26:13 59° W 20:30:16 10° N
Spot 1 4.4 20:22:17 10° S 20:27:09 77° WSW 20:31:45 10° NNW
Meteor 2-12 Rocket 4.5 20:22:28 10° S 20:28:37 84° W 20:34:48 10° N
Milstar 3 4.4 20:18:22 10° W 20:28:46 82° S 20:41:46 27° ESE
Cosmos 1092 Rocket 4.4 20:25:12 10° NNE 20:30:56 39° E 20:32:26 34° ESE
ISS -2.6 20:29:13 10° WSW 20:32:23 51° NW 20:33:16 37° N
FengYun 1-2 T 4.1 20:29:30 10° SSE 20:35:01 78° ENE 20:40:31 10° N
Cosmos 158 Rocket 4.2 20:31:03 10° S 20:34:54 41° SE 20:34:54 41° SE
OAO 3 Rocket 3.8 20:34:49 10° WNW 20:39:26 47° N 20:40:37 38° NE
Cosmos 1634 Rocket 4.1 20:33:31 10° SSE 20:39:29 48° E 20:45:24 10° NNE
ASTRO E2 2.5 20:38:59 10° W 20:43:03 82° N 20:43:08 81° NE
ALOS 2.1 20:42:33 47° SE 20:43:48 72° ENE 20:48:28 10° N
USA 215 4.5 20:38:04 10° NNE 20:43:59 38° NW 20:49:55 10° WSW
Cosmos 1766 Rocket 4.5 20:40:26 10° NNW 20:44:38 48° W 20:48:47 10° SSW
FUSE 4.3 20:40:27 10° WSW 20:45:36 49° S 20:46:23 45° SSE
BREEZE-M DEB (TANK) 3.7 20:33:30 10° NW 20:50:29 87° SW 20:52:19 46° SE
ATLAS 5 CENTAUR R/B 4.5 20:51:59 10° W 20:55:11 18° NW 20:58:33 10° N
SeaSat 1 2.4 20:54:05 10° NNE 20:59:02 85° WNW 21:03:58 10° SSW
Atlas Centaur 2 3.5 20:55:23 10° W 21:03:29 48° SSW 21:06:05 36° SSE
Meteosat 1 Rocket2 3.9 21:04:10 10° WSW 21:09:26 52° SSW 21:09:26 52° SSW
SEDSat Delta rocket 3.9 21:06:50 10° W 21:13:39 85° N 21:14:10 77° ENE
Resurs 01 Rocket 4.5 21:27:29 10° SW 21:30:06 15° W 21:32:44 10° WNW
CENTAUR R/B 3.9 21:46:17 10° WSW 21:51:36 33° NW 21:57:27 10° N
Cosmos 2369 Rocket 4.0 21:53:47 10° NNW 21:56:06 26° NNW 21:56:06 26° NNW
